sat.trackr.live / text

‹ back to catalog

STARLINK-35588

NORAD 66424 · 2025-259C

PAYLOAD ACTIVE UNKNOWN

§ Identity

Operator
Country
US
Launch date
2025-11-11
Launch site
AFETR
Launch vehicle
Mass (kg)
RCS (m²)

Purposes: comms

External: N2YO · Heavens-Above · Gunter

§ Orbital elements

Epoch: 2026-05-24T21:18:25.386048Z

Period
94.27 min
Inclination
43.0013°
Eccentricity
0.0001690
Mean motion
15.27568678 rev/d
Perigee alt
481.9 km
Apogee alt
484.2 km
Semi-major
6,861.2 km
B*
7.1687e-4
RAAN
204.1311°
Arg perigee
258.9413°
Mean anomaly
101.1248°
Rev number
3,114

§ Raw data

STARLINK-355881 66424U 25259C   26144.88779382  .00019510  00000+0  71687-3 0  99912 66424  43.0013 204.1311 0001690 258.9413 101.1248 15.27568678 31146

JSON: /api/v1/satellites/66424 · /tle

For live sub-satellite position, see the globe view (requires WebGL).

§ Visibility from observer

Set your observer location to see the next 7 days of passes ≥ 10°. The values pass through the URL so the page stays shareable.

No JS? Fill the form by hand. The geolocation button needs JavaScript.